Wind_Speed
21 21 21 21 22 22 21 21 20 20 20 20 20 20 20 20 19 19 18 17 17 16 16 16 16 16 17 16 16 16 16 15 15 14 14 14 14 14 14 14 13 14 13 13 12 12 12 12 11
22 22 22 22 23 23 22 22 22 22 22 22 21 21 21 21 20 20 20 19 19 19 18 18 18 17 18 18 18 17 17 17 17 16 16 16 16 16 16 16 15 15 15 14 13 14 14 14 13
23 23 24 24 24 23 23 23 23 24 24 23 22 22 22 22 21 21 21 21 21 20 20 19 20 19 20 20 20 19 19 19 19 18 18 18 18 17 17 17 17 17 16 16 15 15 15 15 15
24 24 25 25 25 24 24 24 24 25 24 24 24 24 24 24 23 23 22 22 22 22 21 21 21 21 21 21 20 20 20 20 20 20 20 20 19 19 19 19 19 19 18 18 17 17 17 16 17
25 26 26 26 25 25 25 26 26 26 26 25 25 25 25 25 25 25 25 24 24 24 23 23 23 23 23 23 22 22 22 22 22 22 22 22 22 22 21 21 20 20 20 20 19 18 18 18 18
27 28 28 26 26 26 27 27 27 27 27 27 27 27 27 27 27 26 26 26 25 25 25 25 24 25 25 24 24 24 24 24 24 24 24 24 24 24 24 23 22 21 22 22 21 21 20 20 20
28 28 29 28 27 27 27 28 28 28 28 29 29 29 29 29 29 28 28 28 27 27 27 26 26 26 26 26 26 26 26 26 26 26 26 26 26 26 25 25 24 23 23 23 23 22 22 22 22
29 30 29 28 28 28 29 30 30 30 30 31 31 31 30 31 31 30 30 30 29 29 29 28 28 27 28 28 28 28 28 28 28 28 29 28 28 29 28 27 26 25 25 25 25 24 24 24 24
30 31 30 29 29 29 30 31 32 32 32 32 32 32 32 32 32 33 32 32 31 31 31 31 30 30 30 30 30 30 30 30 30 30 30 31 30 30 30 29 29 28 27 27 27 27 26 26 26
32 32 31 31 31 31 31 32 33 33 33 33 34 34 34 34 34 34 34 34 33 33 33 33 32 32 32 32 32 32 32 32 32 32 32 32 32 32 32 31 31 30 29 29 28 28 28 28 28
33 33 32 33 33 33 33 34 35 35 35 35 35 35 36 36 36 36 36 36 35 35 35 35 34 34 33 34 34 34 33 33 33 33 33 33 33 34 33 33 32 32 31 31 31 31 30 30 30
33 33 33 34 34 35 35 36 36 36 36 37 37 37 37 37 36 37 37 37 37 36 36 36 36 35 35 35 35 35 35 35 34 34 34 34 34 35 35 34 34 34 34 33 33 34 32 31 31
34 34 33 33 35 36 37 37 37 37 38 39 39 39 39 38 38 38 38 38 38 37 37 37 37 37 36 37 37 36 36 36 36 36 36 36 36 36 36 36 36 36 35 35 34 35 34 33 33
33 33 33 34 35 36 37 38 39 38 39 40 40 41 40 40 40 40 39 39 39 39 38 38 38 37 37 36 37 37 37 37 37 37 37 37 37 37 37 37 38 38 37 36 36 37 36 35 35
33 34 34 34 35 37 38 39 39 39 41 41 41 41 41 40 41 41 41 40 40 40 40 40 39 38 38 38 38 38 38 38 39 38 37 37 38 38 39 39 39 39 39 39 38 38 37 37 36
33 35 35 35 37 38 39 40 38 40 41 41 41 42 42 41 41 41 41 41 41 41 41 41 40 39 39 40 39 39 39 39 39 38 38 38 39 39 40 41 41 41 41 40 40 40 39 40 39
34 35 35 36 37 38 40 40 39 41 42 42 41 42 42 41 41 41 41 42 42 42 41 41 41 41 41 40 40 40 40 39 38 38 39 39 39 40 40 41 42 42 43 42 42 42 41 42 42
33 34 35 35 37 38 39 38 38 40 41 41 41 41 41 40 41 41 41 41 42 42 42 42 41 42 41 41 41 41 40 40 39 39 39 40 41 41 41 41 42 43 43 43 43 44 43 43 43
33 34 35 35 37 38 37 37 37 38 39 39 39 39 39 40 40 40 40 40 41 42 42 42 41 41 41 41 40 40 40 40 40 41 41 42 42 42 43 43 43 44 44 43 44 43 44 44 44
33 34 34 35 35 36 37 36 35 35 36 36 36 36 37 38 39 40 40 39 39 39 40 41 40 40 40 40 40 40 41 41 41 41 41 41 42 43 44 44 44 44 44 44 44 44 44 44 44
33 34 33 34 34 35 36 35 33 33 33 34 34 35 35 35 36 37 38 38 38 39 39 40 40 40 40 41 41 41 41 41 41 41 41 41 42 42 44 45 46 45 45 44 44 44 44 44 44
33 34 34 35 35 35 36 36 32 32 33 34 34 34 34 35 36 36 37 38 38 39 39 39 40 40 40 41 41 41 41 41 41 41 41 42 42 43 44 45 45 45 44 44 44 44 44 45 45
33 33 33 34 34 35 34 35 32 32 33 33 33 34 35 36 36 36 37 38 38 38 38 39 39 39 40 40 40 41 41 42 42 42 42 42 43 43 43 44 44 44 44 44 44 44 44 45 45
32 32 33 33 33 34 32 34 33 31 32 32 33 33 34 35 36 37 37 38 38 38 38 38 38 39 39 40 40 41 41 41 41 41 41 42 42 43 43 42 42 43 44 44 44 45 45 45 45
30 31 32 33 33 33 32 33 32 31 32 33 33 33 34 34 34 35 36 37 37 36 37 38 38 38 39 39 41 41 42 41 41 41 41 41 41 42 42 42 42 42 43 44 45 45 45 45 45
29 29 31 32 33 32 32 33 31 31 32 33 33 33 33 33 33 34 34 35 35 36 36 36 37 38 38 39 40 41 41 41 41 41 41 42 42 42 42 43 43 43 43 44 45 45 45 45 46
28 29 30 32 33 33 33 33 32 31 32 32 33 33 33 32 32 32 33 34 35 35 36 37 37 37 37 38 39 40 40 40 40 41 41 42 42 42 43 43 44 45 44 44 45 45 46 46 46
29 29 30 31 32 34 33 32 31 31 31 31 32 33 32 32 32 32 33 33 34 34 35 36 36 36 36 37 37 38 38 39 39 40 40 41 42 42 42 42 43 45 45 45 45 45 46 46 46
28 29 30 31 32 33 34 33 31 30 30 31 32 33 33 32 32 32 32 32 33 34 34 34 35 35 35 36 36 37 37 38 39 39 40 41 42 42 42 42 43 44 44 45 45 44 44 45 45
27 28 29 30 31 32 34 33 31 31 30 31 31 31 31 32 32 33 33 33 33 33 34 34 34 35 35 35 36 36 37 38 39 39 40 41 41 42 42 43 43 43 43 44 45 45 45 45 46
Wind_Direction
250 250 250 252 253 254 256 257 257 257 258 259 260 261 261 261 262 261 261 261 260 261 262 264 265 265 264 265 264 263 262 262 261 259 259 258 257 257 257 258 258 260 261 262 262 263 263 262 261
251 251 251 253 255 257 257 258 258 258 258 258 258 260 260 262 263 263 261 259 259 260 261 263 264 265 264 264 263 262 262 261 260 259 259 258 256 257 258 258 258 259 260 260 260 262 263 263 261
252 253 254 255 256 258 259 259 258 258 258 258 258 259 259 260 262 263 262 260 259 260 261 263 264 265 266 266 263 261 261 261 258 258 258 258 258 256 257 259 259 258 259 259 258 259 262 264 263
254 255 256 256 258 259 260 260 259 259 258 258 258 258 259 260 261 261 261 260 259 260 261 263 263 263 264 265 263 261 261 260 259 258 259 259 259 257 257 259 260 259 259 259 260 259 260 263 265
256 256 257 258 258 258 259 260 260 260 260 259 259 258 260 261 262 262 262 261 259 260 260 262 261 261 262 263 263 262 260 260 260 260 260 261 260 258 258 258 259 260 261 261 261 261 260 260 262
257 258 258 259 259 259 258 259 259 259 260 260 260 260 260 261 263 263 264 263 262 261 261 261 262 261 261 260 261 261 260 260 260 261 261 260 260 259 258 258 259 259 259 260 260 261 261 260 261
259 259 260 260 259 258 258 258 259 259 260 260 261 261 260 261 263 263 263 264 262 262 261 261 262 262 261 261 260 261 260 259 260 260 260 260 259 259 259 258 258 258 258 259 260 260 261 261 262
260 260 260 260 260 259 259 259 259 260 261 261 262 261 261 261 261 262 262 263 262 262 261 261 261 262 262 262 261 261 260 260 260 259 259 259 258 258 258 258 257 257 257 259 260 260 261 262 263
260 261 262 262 261 260 259 260 260 261 261 262 262 262 262 261 261 261 262 262 262 262 261 261 262 263 263 263 262 262 261 260 260 259 259 259 258 257 257 257 257 257 257 257 260 261 262 263 264
261 262 263 262 261 259 260 260 260 261 260 261 262 262 262 261 261 260 260 260 262 261 261 261 262 263 264 263 262 261 260 259 259 259 259 258 257 256 255 255 257 257 257 257 258 260 261 263 264
262 263 262 261 260 260 260 260 260 260 260 261 261 262 262 261 261 260 259 261 262 261 261 261 261 262 263 263 262 261 260 258 258 258 257 257 256 255 254 254 255 256 256 257 258 259 261 262 264
263 263 262 261 260 260 261 261 261 260 261 262 262 263 262 261 260 261 260 261 261 262 262 262 262 262 263 262 262 261 260 258 258 257 257 256 255 254 254 254 254 255 256 256 257 258 260 261 262
264 264 262 261 261 261 261 261 260 261 261 261 262 262 262 261 260 261 260 260 260 261 261 261 262 263 263 262 262 261 260 259 258 257 257 256 255 254 253 253 254 255 256 256 257 259 260 261 263
265 264 263 263 263 263 263 262 262 262 262 262 262 261 262 262 261 261 260 259 259 260 260 261 262 262 262 261 261 260 259 259 258 257 257 256 255 254 253 253 253 254 255 256 257 258 260 263 265
265 265 264 264 264 264 264 263 265 264 264 263 263 262 262 263 262 261 260 259 259 260 260 261 261 261 261 261 260 260 259 258 258 258 258 256 255 254 253 253 254 254 255 256 257 257 259 262 265
265 266 265 265 265 265 266 265 266 265 265 265 264 263 263 262 262 261 261 260 260 260 260 261 261 261 261 261 260 259 259 258 257 257 257 256 255 255 255 255 255 255 255 256 257 258 260 261 264
266 267 267 267 267 267 267 267 266 266 266 266 265 264 264 263 261 261 261 260 260 261 260 261 261 261 261 261 259 257 257 257 256 256 256 256 256 256 256 255 256 256 257 258 258 259 261 262 263
270 270 270 270 270 269 269 268 268 268 267 266 264 264 263 262 261 262 261 260 260 261 261 261 261 261 260 259 257 256 256 256 256 255 255 256 256 256 257 258 257 258 259 259 260 261 262 263 265
273 273 272 272 272 271 271 270 269 268 268 266 265 263 262 261 261 262 261 261 262 261 262 261 261 260 258 257 256 256 256 256 256 255 255 256 257 257 258 258 258 258 258 259 261 262 262 263 264
274 275 274 273 273 273 271 270 270 269 268 266 265 264 264 263 263 261 261 262 262 262 261 260 259 259 258 257 257 257 256 255 256 257 258 258 257 258 259 258 258 259 259 260 261 262 262 263 264
276 277 276 275 274 273 273 271 270 270 268 266 265 264 264 264 263 262 261 261 260 260 259 258 258 259 259 259 259 258 258 257 257 258 259 258 258 259 259 259 259 259 260 261 262 262 262 263 263
278 277 277 276 275 274 273 274 271 270 269 268 268 266 265 264 263 262 262 261 260 259 258 257 258 259 260 260 260 259 259 259 259 259 259 259 258 258 260 261 261 260 260 260 262 262 262 262 262
280 279 278 277 276 275 274 274 273 271 269 269 269 269 267 265 264 264 263 261 261 261 259 258 259 260 260 260 260 260 260 260 261 260 260 260 259 259 260 261 261 260 259 260 261 261 261 261 261
280 280 279 278 277 276 276 276 275 273 272 271 270 271 270 268 265 264 263 262 261 261 260 260 260 260 260 260 261 261 261 261 261 261 261 260 260 259 259 260 261 261 259 259 259 260 260 259 260
280 281 280 280 279 279 279 277 277 276 274 272 272 271 271 270 269 267 264 262 262 262 262 262 260 260 260 260 260 261 261 261 261 260 260 260 260 259 259 259 260 261 260 259 259 259 259 260 261
281 281 280 281 281 281 281 280 279 278 276 275 273 273 272 271 270 268 265 263 262 262 261 261 261 261 261 260 260 261 261 260 260 260 260 260 260 260 260 259 259 260 260 260 260 259 258 259 261
282 281 281 280 279 281 282 281 281 279 278 277 275 274 273 272 270 268 266 265 264 262 261 262 261 261 262 262 262 261 261 261 261 261 261 260 260 261 261 261 259 259 259 260 259 259 258 259 260
282 281 281 280 281 283 284 283 283 281 280 278 277 276 273 272 270 267 266 266 265 264 264 263 262 262 262 262 263 263 262 262 262 262 262 261 262 262 261 262 262 261 260 260 260 259 259 259 260
284 281 280 281 281 284 286 287 286 285 284 281 277 275 273 270 268 266 266 267 266 265 264 263 263 263 264 264 264 264 264 264 264 264 263 263 263 263 263 263 262 262 261 260 259 260 261 260 260
285 283 281 282 283 284 286 288 289 287 286 284 280 277 273 270 267 267 267 268 268 267 266 265 265 266 267 267 267 266 266 266 265 265 266 265 265 265 265 265 264 263 262 261 259 258 259 260 261
Height
5806 5807 5809 5810 5812 5813 5813 5815 5816 5816 5817 5818 5819 5819 5820 5822 5823 5826 5826 5825 5825 5826 5826 5827 5827 5827 5828 5829 5829 5830 5830 5831 5832 5833 5834 5835 5836 5837 5837 5838 5839 5840 5841 5842 5842 5843 5844 5844 5845
5802 5804 5805 5806 5807 5809 5810 5811 5812 5812 5814 5814 5815 5816 5816 5817 5819 5820 5820 5820 5821 5822 5823 5823 5823 5824 5824 5825 5826 5826 5827 5828 5829 5830 5831 5832 5833 5834 5835 5835 5836 5837 5838 5839 5840 5840 5841 5842 5843
5798 5800 5801 5802 5803 5805 5806 5807 5807 5808 5809 5810 5811 5812 5813 5813 5814 5815 5816 5817 5818 5818 5819 5819 5820 5820 5820 5821 5822 5822 5823 5824 5825 5826 5827 5828 5829 5830 5832 5832 5833 5834 5834 5835 5837 5837 5838 5839 5840
5794 5796 5797 5798 5799 5801 5802 5802 5802 5803 5804 5806 5807 5808 5808 5809 5810 5811 5811 5812 5813 5814 5814 5815 5815 5816 5816 5817 5817 5818 5819 5820 5821 5822 5823 5824 5826 5827 5828 5829 5830 5830 5831 5832 5833 5834 5835 5836 5837
5789 5791 5792 5793 5795 5796 5797 5797 5797 5799 5800 5801 5802 5803 5804 5804 5805 5806 5807 5807 5808 5809 5809 5810 5811 5811 5811 5812 5813 5813 5814 5815 5816 5817 5819 5820 5821 5822 5823 5825 5826 5827 5827 5828 5830 5831 5832 5832 5833
5784 5785 5787 5788 5790 5791 5791 5792 5792 5794 5795 5796 5797 5798 5799 5799 5800 5800 5801 5802 5802 5804 5804 5805 5805 5806 5806 5807 5808 5808 5809 5810 5811 5813 5814 5815 5816 5817 5819 5820 5821 5822 5823 5824 5825 5826 5827 5828 5829
5779 5780 5781 5783 5784 5785 5786 5786 5787 5788 5789 5790 5791 5792 5793 5794 5794 5795 5795 5796 5797 5798 5799 5799 5800 5800 5801 5801 5802 5803 5804 5805 5806 5807 5808 5810 5811 5812 5813 5815 5816 5818 5819 5820 5821 5822 5823 5824 5825
5773 5775 5775 5777 5778 5780 5780 5780 5781 5782 5783 5784 5785 5786 5787 5788 5788 5789 5789 5790 5791 5792 5793 5793 5794 5794 5795 5795 5796 5797 5798 5798 5800 5801 5802 5804 5805 5807 5808 5810 5811 5812 5813 5815 5816 5816 5818 5819 5820
5767 5769 5769 5771 5772 5773 5773 5773 5774 5775 5776 5777 5778 5779 5781 5781 5782 5782 5783 5784 5785 5786 5786 5787 5788 5788 5788 5789 5789 5790 5791 5792 5793 5794 5796 5798 5799 5801 5802 5804 5805 5807 5808 5809 5810 5811 5812 5814 5815
5760 5762 5764 5765 5765 5766 5766 5767 5767 5768 5769 5770 5771 5772 5773 5773 5774 5775 5776 5777 5778 5778 5779 5780 5780 5781 5781 5782 5782 5783 5783 5785 5786 5787 5789 5791 5792 5794 5796 5798 5799 5800 5802 5803 5804 5806 5807 5808 5809
5753 5755 5756 5757 5757 5758 5759 5759 5760 5761 5762 5762 5763 5764 5765 5765 5766 5767 5768 5769 5770 5770 5771 5772 5773 5773 5773 5774 5774 5774 5775 5777 5778 5780 5781 5783 5785 5787 5789 5791 5792 5794 5795 5797 5798 5800 5801 5802 5803
5746 5748 5748 5749 5749 5750 5751 5752 5752 5753 5754 5754 5754 5755 5756 5757 5758 5759 5760 5761 5761 5762 5763 5764 5764 5765 5765 5765 5765 5766 5767 5769 5770 5772 5774 5776 5777 5779 5781 5783 5785 5787 5789 5790 5792 5793 5794 5795 5796
5739 5740 5740 5741 5741 5742 5742 5743 5744 5745 5745 5745 5746 5747 5748 5748 5749 5750 5751 5752 5752 5753 5754 5755 5756 5756 5756 5756 5757 5757 5759 5760 5762 5764 5766 5768 5770 5772 5773 5775 5777 5779 5781 5783 5784 5786 5787 5788 5789
5732 5732 5733 5733 5733 5733 5734 5735 5736 5737 5736 5736 5737 5738 5738 5739 5740 5741 5742 5743 5744 5744 5745 5746 5747 5747 5747 5748 5748 5749 5751 5752 5754 5756 5757 5759 5761 5763 5766 5768 5770 5771 5773 5775 5777 5778 5779 5780 5782
5723 5724 5725 5725 5725 5724 5725 5726 5727 5727 5727 5727 5728 5729 5729 5730 5731 5732 5733 5733 5734 5735 5736 5737 5737 5738 5739 5739 5740 5741 5742 5744 5746 5747 5749 5751 5753 5755 5757 5759 5761 5763 5765 5767 5768 5770 5771 5772 5773
5715 5715 5716 5717 5716 5715 5717 5718 5719 5717 5717 5718 5718 5719 5720 5720 5721 5722 5723 5724 5725 5726 5727 5727 5728 5729 5730 5730 5731 5732 5733 5735 5737 5739 5740 5742 5744 5746 5748 5750 5752 5754 5756 5758 5759 5761 5762 5763 5764
5706 5707 5707 5708 5707 5706 5706 5708 5709 5707 5707 5708 5708 5709 5709 5710 5711 5712 5713 5714 5715 5716 5717 5718 5718 5719 5720 5721 5722 5723 5724 5726 5728 5730 5731 5733 5734 5736 5739 5741 5743 5745 5746 5748 5750 5751 5753 5754 5755
5698 5698 5698 5698 5697 5696 5696 5697 5699 5697 5696 5697 5697 5698 5699 5700 5701 5702 5702 5704 5705 5706 5707 5708 5708 5709 5710 5711 5712 5713 5715 5717 5718 5720 5722 5723 5725 5727 5729 5731 5733 5735 5737 5738 5740 5742 5743 5745 5746
5689 5689 5689 5688 5687 5686 5686 5687 5688 5687 5686 5687 5687 5687 5688 5689 5690 5691 5692 5693 5694 5695 5696 5697 5698 5699 5700 5701 5703 5704 5706 5707 5709 5710 5711 5714 5716 5717 5719 5721 5723 5725 5727 5729 5730 5732 5734 5735 5736
5680 5679 5679 5679 5677 5676 5676 5677 5678 5678 5678 5677 5677 5677 5678 5679 5680 5681 5682 5683 5684 5684 5686 5687 5688 5689 5690 5692 5693 5694 5696 5698 5699 5701 5702 5704 5705 5707 5709 5711 5713 5714 5716 5718 5720 5722 5723 5725 5726
5672 5671 5670 5669 5669 5667 5666 5668 5670 5670 5669 5668 5668 5668 5669 5669 5670 5671 5672 5673 5673 5674 5675 5677 5678 5679 5680 5682 5683 5684 5686 5688 5689 5690 5692 5693 5695 5697 5698 5700 5701 5703 5706 5708 5709 5711 5713 5714 5716
5663 5662 5661 5660 5659 5658 5658 5656 5661 5661 5660 5660 5660 5660 5660 5660 5661 5661 5662 5663 5664 5665 5666 5667 5668 5670 5671 5672 5673 5675 5676 5678 5679 5681 5682 5683 5684 5686 5688 5689 5690 5692 5694 5696 5698 5700 5702 5703 5705
5654 5653 5652 5651 5649 5649 5649 5647 5651 5652 5652 5652 5652 5651 5651 5651 5652 5652 5652 5653 5654 5655 5656 5657 5659 5660 5661 5662 5663 5664 5666 5667 5669 5670 5671 5673 5674 5675 5676 5678 5679 5681 5683 5685 5687 5689 5690 5692 5694
5645 5645 5643 5642 5640 5640 5642 5639 5640 5642 5643 5643 5643 5643 5642 5642 5642 5643 5643 5644 5645 5646 5647 5648 5649 5650 5651 5652 5653 5654 5655 5657 5658 5659 5660 5661 5663 5664 5666 5667 5668 5670 5671 5673 5675 5677 5679 5681 5682
5638 5637 5635 5633 5632 5632 5633 5631 5633 5634 5633 5633 5633 5633 5633 5633 5633 5633 5634 5634 5635 5636 5637 5638 5639 5640 5641 5642 5643 5644 5645 5646 5647 5648 5650 5651 5652 5654 5655 5656 5658 5659 5660 5662 5664 5666 5668 5670 5671
5631 5630 5629 5626 5624 5624 5624 5623 5626 5625 5623 5623 5623 5623 5624 5624 5624 5624 5625 5625 5626 5627 5628 5629 5629 5630 5631 5632 5633 5634 5635 5636 5637 5638 5639 5640 5642 5643 5644 5645 5646 5648 5649 5650 5652 5654 5656 5658 5660
5624 5622 5622 5619 5616 5615 5615 5616 5617 5616 5615 5615 5614 5614 5614 5615 5615 5615 5616 5616 5616 5617 5618 5619 5620 5620 5621 5622 5622 5623 5624 5625 5626 5627 5628 5629 5630 5632 5632 5634 5635 5636 5637 5639 5640 5642 5644 5646 5648
5617 5615 5614 5611 5609 5607 5607 5608 5609 5609 5607 5607 5606 5605 5605 5606 5606 5606 5607 5607 5607 5608 5608 5609 5610 5610 5611 5612 5612 5613 5614 5615 5615 5616 5618 5618 5619 5620 5621 5622 5623 5624 5625 5627 5629 5630 5632 5634 5636
5611 5609 5606 5604 5603 5600 5598 5603 5602 5600 5599 5598 5597 5596 5596 5596 5597 5597 5597 5597 5598 5598 5598 5599 5600 5601 5601 5602 5602 5603 5603 5604 5605 5606 5607 5607 5608 5609 5609 5610 5611 5612 5613 5614 5616 5618 5620 5622 5623
5603 5602 5600 5599 5596 5594 5591 5595 5594 5592 5590 5588 5588 5587 5587 5588 5588 5588 5588 5588 5588 5589 5589 5590 5591 5591 5592 5592 5592 5593 5593 5594 5594 5595 5595 5596 5597 5597 5598 5598 5599 5600 5601 5602 5604 5606 5608 5609 5611